Bedford, MA

5:27 AM EDT on September 25, 2016 (GMT -0400)
Hanscom

Weather History for KBED - April, 2014

Change the Weather History Date:

Sunday, April 27, 2014

  Actual Average Record
Temperature  
Mean Temperature 44 °F -  
Max Temperature 51 °F 62 °F 93 °F (1990)
Min Temperature 39 °F 38 °F 26 °F (2002)
Degree Days  
Heating Degree Days 20    
Moisture  
Dew Point 40 °F    
Average Humidity 90    
Maximum Humidity 100    
Minimum Humidity 66    
Precipitation  
Precipitation 0.19 in - - ()
Sea Level Pressure  
Sea Level Pressure 29.93 in    
Wind  
Wind Speed 5 mph (NE)    
Max Wind Speed 9 mph    
Max Gust Speed -    
Visibility 9 miles    
Events Rain    
Averages and records for this station are not official NWS values.
T = Trace of Precipitation, MM = Missing Value Source: NWS Daily Summary

Daily Weather History Graph

Daily Weather History Graph

Search for Another Location

Airport or City:

Trip Planner

Search our weather history database for the weather conditions in past years. The results will help you decide how hot, cold, wet, or windy it might be!

Date:

Astronomy

Apr. 27, 2014 Rise Set
Actual Time 5:45 AM EDT 7:40 PM EDT
Civil Twilight 5:15 AM EDT 8:10 PM EDT
Nautical Twilight 4:38 AM EDT 8:48 PM EDT
Astronomical Twilight 3:58 AM EDT 9:28 PM EDT
Moon 4:46 AM EDT (4/27) 6:09 PM EDT (4/27)
Length of Visible Light 14h 55m
Length of Day
13h 54m
Waning Crescent, 3% of the Moon is Illuminated
Apr 27
Waning Crescent
Apr 29
New
May 6
First Quarter
May 14
Full
May 21
Last Quarter

Hourly Weather History & Observations

Time (EDT) Temp. Windchill Dew Point Humidity Pressure Visibility Wind Dir Wind Speed Gust Speed Precip Events Conditions
12:56 AM 41.0 °F 37.1 °F 41.0 °F 100% 29.90 in 10.0 mi ENE 5.8 mph - 0.00 in Rain Light Rain
1:36 AM 41.0 °F 38.0 °F 41.0 °F 100% 29.85 in 6.0 mi East 4.6 mph - 0.03 in Rain Light Rain
1:54 AM 41.0 °F 39.0 °F 41.0 °F 100% 29.85 in 6.0 mi SSE 3.5 mph - 0.04 in Rain Light Rain
1:56 AM 41.0 °F 38.0 °F 41.0 °F 100% 29.89 in 6.0 mi SE 4.6 mph - 0.04 in Rain Light Rain
2:20 AM 41.0 °F 39.0 °F 41.0 °F 100% 29.84 in 8.0 mi ESE 3.5 mph - 0.03 in Rain Light Rain
2:30 AM 41.0 °F 38.0 °F 41.0 °F 100% 29.84 in 5.0 mi ESE 4.6 mph - 0.05 in Rain Light Rain
2:40 AM 41.0 °F 39.0 °F 41.0 °F 100% 29.84 in 5.0 mi SE 3.5 mph - 0.07 in Rain Light Rain
2:56 AM 41.0 °F 37.1 °F 41.0 °F 100% 29.88 in 7.0 mi SSE 5.8 mph - 0.09 in Rain Light Rain
3:03 AM 41.0 °F 38.0 °F 39.9 °F 96% 29.84 in 9.0 mi SSE 4.6 mph - 0.00 in Rain Light Rain
3:32 AM 39.9 °F 37.8 °F 39.9 °F 100% 29.84 in 9.0 mi ESE 3.5 mph - 0.02 in Rain Light Rain
3:53 AM 39.2 °F 35.9 °F 39.2 °F 100% 29.84 in 5.0 mi East 4.6 mph - 0.03 in Rain Light Rain
3:56 AM 39.9 °F 35.8 °F 39.9 °F 100% 29.88 in 5.0 mi East 5.8 mph - 0.03 in Rain Light Rain
4:56 AM 39.9 °F 36.7 °F 39.9 °F 100% 29.89 in 10.0 mi ESE 4.6 mph - 0.01 in   Overcast
5:31 AM 39.9 °F 35.8 °F 39.9 °F 100% 29.85 in 10.0 mi East 5.8 mph - N/A   Overcast
5:39 AM 39.9 °F 36.7 °F 39.9 °F 100% 29.85 in 10.0 mi East 4.6 mph - N/A   Overcast
5:56 AM 39.9 °F 37.8 °F 39.9 °F 100% 29.90 in 10.0 mi East 3.5 mph - 0.00 in Rain Light Rain
6:13 AM 39.9 °F 37.8 °F 39.9 °F 100% 29.86 in 10.0 mi ENE 3.5 mph - 0.01 in Rain Light Rain
6:39 AM 41.0 °F 39.0 °F 41.0 °F 100% 29.87 in 10.0 mi NE 3.5 mph - 0.01 in   Overcast
6:56 AM 41.0 °F 38.0 °F 41.0 °F 100% 29.92 in 10.0 mi NNE 4.6 mph - 0.01 in   Overcast
7:00 AM 41.0 °F 37.1 °F 39.9 °F 96% 29.87 in 10.0 mi NNE 5.8 mph - N/A   Overcast
7:27 AM 41.0 °F 38.0 °F 39.9 °F 96% 29.88 in 10.0 mi NNE 4.6 mph - N/A   Overcast
7:47 AM 41.0 °F 38.0 °F 39.9 °F 96% 29.89 in 10.0 mi North 4.6 mph - N/A   Overcast
7:56 AM 41.0 °F 38.0 °F 39.9 °F 96% 29.94 in 10.0 mi North 4.6 mph - N/A   Overcast
8:56 AM 41.0 °F 38.0 °F 39.9 °F 96% 29.95 in 6.0 mi NNE 4.6 mph - N/A   Overcast
9:03 AM 41.0 °F 39.0 °F 39.9 °F 96% 29.91 in 10.0 mi NNE 3.5 mph - N/A   Overcast
9:56 AM 42.1 °F 39.2 °F 39.9 °F 92% 29.97 in 10.0 mi NW 4.6 mph - N/A   Overcast
10:09 AM 42.1 °F 37.7 °F 39.9 °F 92% 29.93 in 8.0 mi NW 6.9 mph - N/A   Overcast
10:56 AM 42.1 °F 39.2 °F 41.0 °F 96% 29.99 in 8.0 mi NNW 4.6 mph - N/A   Overcast
11:03 AM 43.0 °F 38.8 °F 41.0 °F 93% 29.94 in 10.0 mi NNW 6.9 mph - N/A   Overcast
11:56 AM 45.0 °F 41.2 °F 41.0 °F 86% 29.99 in 10.0 mi NNE 6.9 mph - N/A   Overcast
12:24 PM 46.0 °F 42.5 °F 39.9 °F 79% 29.94 in 10.0 mi NNW 6.9 mph - N/A   Overcast
12:56 PM 46.9 °F - 39.9 °F 77% 29.99 in 10.0 mi NW 8.1 mph - N/A   Overcast
1:51 PM 48.2 °F - 39.2 °F 71% 29.94 in 10.0 mi NNE 5.8 mph - N/A   Overcast
1:56 PM 48.0 °F - 39.9 °F 74% 29.99 in 10.0 mi North 8.1 mph - N/A   Overcast
2:56 PM 48.0 °F - 39.0 °F 71% 29.99 in 10.0 mi NE 9.2 mph - N/A   Mostly Cloudy
3:03 PM 48.9 °F - 39.9 °F 71% 29.95 in 10.0 mi NNE 6.9 mph - N/A   Overcast
3:56 PM 50.0 °F - 39.2 °F 66% 29.96 in 10.0 mi Variable 3.5 mph - N/A   Overcast
4:03 PM 50.0 °F - 39.0 °F 66% 29.95 in 10.0 mi Variable 5.8 mph - N/A   Overcast
4:56 PM 48.0 °F - 43.0 °F 83% 30.01 in 10.0 mi Calm Calm - 0.01 in   Overcast
5:03 PM 48.0 °F - 43.0 °F 83% 29.96 in 10.0 mi Calm Calm - N/A   Overcast
5:56 PM 46.9 °F - 42.1 °F 83% 30.01 in 10.0 mi North 3.5 mph - 0.00 in Rain Light Rain
6:56 PM 48.0 °F - 42.1 °F 80% 30.03 in 10.0 mi NW 3.5 mph - 0.00 in   Overcast
7:56 PM 46.0 °F 43.9 °F 43.0 °F 89% 30.04 in 10.0 mi West 4.6 mph - N/A   Overcast
8:56 PM 46.9 °F - 39.9 °F 77% 30.07 in 10.0 mi NW 5.8 mph - N/A   Overcast
9:56 PM 45.0 °F 40.1 °F 39.0 °F 80% 30.08 in 10.0 mi WNW 9.2 mph - 0.00 in   Mostly Cloudy
10:56 PM 42.1 °F 37.1 °F 37.0 °F 82% 30.08 in 10.0 mi NW 8.1 mph - N/A   Partly Cloudy
11:56 PM 41.0 °F 35.2 °F 36.0 °F 82% 30.08 in 10.0 mi WNW 9.2 mph - N/A   Clear